Powrót do katalogu

STARLINK-35793

AktywnyŁącznośćVLEO
NORAD 67179·PAYLOAD·🇺🇸 United States

Wystrzelony Dec 17, 2025 z Cape Canaveral Space Force Station

Loading…

Następne Przeloty (najbliższe 24 godziny)

TLE

ŚwieżeSource: CelesTrak SupGP

Epoka: Sep 14, 2026, 21:48 UTC

1 67179C 25303S   26257.90881944 -.00019167  00000+0 -69414-3 0  2577
2 67179  43.0035 322.0389 0001480 269.6701 122.1089 15.27591950    16

Śledź STARLINK-35793 w czasie rzeczywistym z AllMySat

Download on the App Store